INTELSAT 16 (IS-16) (36397 NORAD) Tracking and Keplerian Element Data

This shows tracking and keplerian element data for the satellite.

Feedback or suggestion? Click here.




ElementValue
Catalog36397
NameINTELSAT 16 (IS-16)
Epoch Orbit5465
Epoch Day34.52555488
Epoch Year2025
RAAN59.9389
Inclination0.0121
Eccentricity0.0001994
Argument of Perigee252.2575
Mean Anonmoly294.7273
Mean Motion1.00270313
Decay Rate-2.4E-06
L11 36397U 10006A 25034.52555488 -.00000240 00000+0 00000+0 0 9996
L22 36397 0.0121 59.9389 0001994 252.2575 294.7273 1.00270313 54659



Live tracking and technical data element details for INTELSAT 16 (IS-16) (NORAD 36397). INTELSAT 16 (IS-16) can be tracked NOW for your location showing map with azimuth and elevation plus other details from your city location.







IsCatalogInMostPopularTable: catalog: 36397, numindb: 645
Update: records affected: 1



GetName: 36397 INTELSAT 16 (IS-16)

Hit Count: updated at: Wed, 30 Apr 2025 17:43:59 GMT